Location: Escondida
(34.1015°N, 106.8964°W)
Time: 14:03:36
(UTC+00:00)

ISS - Pass Details

Date: 16 February 2026
Orbit: 415 x 426 km, 51.6° (Epoch: 13 March)

Event Time Altitude Azimuth Distance (km) Brightness Sun altitude
Exits shadow 11:34:21 11° 41° (NE) 1,444 -0.5 -28.9°
Drops below altitude 10° 11:34:28 10° 41° (NE) 1,491 -0.4 -28.9°
Sets 11:36:37 0° 45° (NE) 2,369 0.7 -28.5°
